EHI
0 0 0 0 0 0 0 0 2 5 9 12 16 18 19 19 18 14 7 1 0 0 0 0 0 1 2 3 3 3 4 3 2 2 2 3 3 3 3 2 1 0 0
0 0 0 0 0 0 0 0 1 2 4 6 10 12 12 11 12 11 6 1 0 0 0 0 0 0 1 3 3 2 2 2 1 1 1 1 2 3 2 1 0 0 0
0 0 0 0 0 0 0 0 0 0 0 1 3 5 6 5 5 5 4 1 0 0 0 0 0 0 1 2 2 1 1 0 0 0 0 0 1 2 1 0 0 0 0
0 0 0 0 0 0 0 0 0 0 0 0 0 2 2 2 1 1 1 1 0 0 0 0 0 0 1 1 1 1 0 0 0 0 0 0 1 1 0 0 0 0 0
0 0 0 0 0 0 0 0 0 0 0 0 0 0 0 0 0 0 0 0 0 0 0 0 0 0 0 0 1 1 0 0 0 0 0 0 0 0 0 0 0 0 0
0 0 0 0 0 0 0 0 0 0 0 0 0 0 0 0 0 0 0 0 0 0 0 0 0 0 0 0 0 0 0 0 0 0 0 0 0 0 0 0 0 0 0
0 0 0 0 0 0 0 0 0 0 0 0 0 0 0 0 0 0 0 0 0 0 0 0 0 0 0 0 0 0 0 0 0 0 0 0 0 0 0 0 0 0 0
0 0 0 0 0 0 0 0 0 0 0 0 0 0 0 0 0 0 0 0 0 0 0 0 0 0 0 0 0 0 0 0 0 0 0 0 0 0 0 0 0 0 0
0 0 0 0 0 0 0 0 0 0 0 0 0 0 0 0 0 0 0 0 0 0 0 0 0 0 0 0 0 0 0 0 0 0 0 0 0 0 0 0 0 0 0
0 0 0 0 0 0 0 0 0 0 0 0 0 0 0 0 0 0 0 0 0 0 0 0 0 0 0 0 0 0 0 0 0 0 0 0 0 0 0 0 0 0 0
0 0 0 0 0 0 0 0 0 0 0 0 0 0 0 0 0 0 0 0 0 0 0 0 0 0 0 0 0 0 0 0 0 0 0 0 0 0 0 0 0 0 0
0 0 0 0 0 0 0 0 0 0 0 0 0 0 0 0 0 0 0 0 0 0 0 0 0 0 0 0 0 0 0 0 0 0 0 0 0 0 0 0 0 0 0
0 0 0 0 0 0 0 0 0 0 0 0 0 0 0 0 0 0 0 0 0 0 0 0 0 0 0 0 0 0 0 0 0 0 0 0 0 0 0 0 0 0 0
0 0 0 0 0 0 0 0 0 0 0 0 0 0 0 0 0 0 0 0 0 0 0 0 0 0 0 0 0 0 0 0 0 0 0 0 0 0 0 0 0 0 0
0 0 0 0 0 0 0 0 0 0 0 0 0 0 0 0 0 0 0 0 0 0 0 0 0 0 0 0 0 0 0 0 0 0 0 0 0 0 0 0 0 0 0
0 0 0 0 0 0 0 0 0 0 0 0 0 0 0 0 0 0 0 0 0 0 0 0 0 0 0 0 0 0 0 0 0 0 0 0 0 0 0 0 0 0 0
0 0 0 0 0 0 0 0 0 0 0 0 0 0 0 0 0 0 0 0 0 0 0 0 0 0 0 0 0 0 0 0 0 0 0 0 0 0 0 0 0 0 0
0 0 0 0 0 0 0 0 0 0 0 0 0 0 0 0 0 0 0 0 0 0 0 0 0 0 0 0 0 0 0 0 0 0 0 0 0 0 0 0 0 0 0
0 0 0 0 0 0 0 0 0 0 0 0 0 0 0 0 0 0 0 0 0 0 0 0 0 0 0 0 0 0 0 0 0 0 0 0 0 0 0 0 0 0 0
0 0 0 0 0 0 0 0 0 0 0 0 0 0 0 0 0 0 0 0 0 0 0 0 0 0 0 0 0 0 0 0 0 0 0 0 0 0 0 0 0 0 0
0 0 0 0 0 0 0 0 0 0 0 0 0 0 0 0 0 0 0 0 0 0 0 0 0 0 0 0 0 0 0 0 0 0 0 0 0 0 0 0 0 0 0
0 0 0 0 0 0 0 0 0 0 0 0 0 0 0 0 0 0 0 0 0 0 0 0 0 0 0 0 0 0 0 0 0 0 0 0 0 0 0 0 0 0 0
0 0 0 0 0 0 0 0 0 0 0 0 0 0 0 0 0 0 0 0 0 0 0 0 0 0 0 0 0 0 0 0 0 0 0 0 0 0 0 0 0 0 0
0 0 0 0 0 0 0 0 0 0 0 0 0 0 0 0 0 0 0 0 0 0 0 0 0 0 0 0 0 0 0 0 0 0 0 0 0 0 0 0 0 0 0
0 0 0 0 0 0 0 0 0 0 0 0 0 0 0 0 0 0 0 0 0 0 0 0 0 0 0 0 0 0 0 0 0 0 0 0 0 0 0 0 0 0 0
0 0 0 0 0 0 0 0 0 0 0 0 0 0 0 0 0 0 0 0 0 0 0 0 0 0 0 0 0 0 0 0 0 0 0 0 0 0 0 0 0 0 0
Wind_Speed
6 6 6 6 7 7 7 8 8 8 8 9 9 9 9 8 8 7 7 7 7 7 7 7 7 6 5 5 4 4 5 4 3 2 3 3 5 6 7 7 6 7 8
6 6 6 6 7 8 8 8 8 9 9 10 10 10 10 10 8 8 8 7 7 8 7 7 7 6 5 4 3 4 3 3 5 7 4 3 4 6 6 7 6 7 7
8 7 7 8 8 9 9 9 9 9 9 10 10 10 11 10 9 9 8 7 7 7 6 6 6 5 4 3 3 3 3 4 5 7 6 3 3 5 6 7 8 6 8
8 8 8 9 9 9 10 10 10 10 10 10 10 9 10 11 11 10 8 7 6 6 5 5 5 4 3 3 3 3 4 6 7 8 7 5 4 4 5 6 6 5 6
8 9 9 9 9 9 9 10 10 10 11 10 9 9 9 10 10 8 7 7 5 4 3 3 2 1 1 1 3 4 6 7 7 8 7 6 5 5 5 4 6 5 5
8 9 9 9 9 9 9 10 10 10 10 9 9 9 9 10 9 6 6 6 5 4 3 1 1 2 4 6 7 7 8 9 8 7 7 7 6 5 4 5 5 5 4
9 10 10 9 9 9 10 10 9 9 9 9 8 9 9 9 9 8 7 5 5 4 3 3 3 3 5 7 10 11 9 9 8 7 8 7 7 5 5 5 4 4 4
9 10 9 9 10 9 9 9 8 7 7 8 8 9 9 9 8 8 8 6 5 4 4 4 4 5 5 8 9 9 8 7 7 6 7 7 7 5 5 5 5 5 4
12 10 10 10 10 10 9 8 7 7 8 9 9 9 8 7 7 8 8 6 5 5 5 5 6 7 8 10 10 11 10 8 11 14 12 11 11 9 5 4 4 5 5
12 11 10 9 10 10 9 9 8 7 8 10 10 8 8 7 6 8 10 6 5 5 5 5 8 10 10 10 9 11 11 9 9 10 9 8 7 6 5 3 2 4 5
11 11 10 9 9 10 10 9 8 8 9 9 10 8 7 6 5 8 10 6 5 6 6 6 7 12 12 10 9 8 11 10 9 8 6 5 4 4 5 5 4 3 5
12 13 12 11 12 12 8 8 7 8 9 9 9 9 6 4 5 7 9 8 4 5 6 7 8 13 13 11 9 11 13 10 6 6 5 4 5 6 6 6 7 8 8
13 13 12 13 11 11 10 10 8 7 8 8 7 6 4 3 3 5 7 7 5 3 5 11 13 13 12 9 12 13 9 5 5 6 6 5 6 6 5 5 5 7 7
14 13 12 12 12 11 8 8 7 7 7 6 6 4 3 2 1 2 3 4 4 4 6 12 15 11 7 9 9 6 4 3 5 6 7 7 6 5 4 4 4 5 5
15 14 13 12 11 9 9 7 8 7 6 5 4 3 2 1 2 2 2 3 3 5 9 8 7 7 6 6 5 4 3 3 5 6 7 7 5 5 4 5 4 5 5
13 12 10 9 8 8 8 8 9 10 8 7 5 3 3 5 6 4 3 4 5 10 10 9 8 8 7 7 7 6 4 4 5 6 6 5 5 4 4 4 3 5 6
13 11 9 8 8 8 8 7 6 6 7 7 7 7 6 8 7 5 4 5 7 9 7 7 7 7 6 6 6 6 5 5 5 6 5 5 5 5 4 4 3 4 5
13 13 11 8 7 7 7 7 6 5 4 4 6 8 9 9 8 7 7 7 5 6 6 7 7 7 6 6 6 6 6 6 5 5 5 5 5 5 4 4 4 4 5
11 8 7 6 6 6 6 6 6 6 4 4 4 5 7 8 7 7 9 6 8 8 7 6 7 7 6 6 6 6 7 6 5 5 5 5 5 5 4 4 4 5 4
8 10 8 6 5 6 6 6 5 5 4 4 5 6 7 7 6 6 7 7 7 7 6 5 6 6 6 6 6 7 7 6 6 5 5 4 4 4 4 5 6 4 2
6 5 7 6 5 4 4 5 4 4 4 4 5 7 11 8 8 9 9 8 7 7 5 5 5 6 6 6 6 7 8 6 5 5 6 4 4 4 4 5 5 4 4
4 3 3 3 3 3 3 3 4 4 4 5 6 8 12 8 9 9 9 8 7 5 5 5 5 6 6 7 7 7 7 7 6 6 6 5 4 4 4 5 5 4 4
4 3 1 2 2 3 3 4 3 3 4 6 7 8 8 8 9 9 9 7 6 5 5 4 5 6 6 6 6 6 7 7 6 6 6 5 5 4 4 4 5 5 4
4 3 2 0 1 2 3 3 3 3 5 6 7 8 9 8 9 10 8 6 5 5 4 4 5 7 8 6 5 6 6 7 7 6 7 6 6 4 4 4 4 5 4
4 2 2 1 1 2 2 2 3 3 4 5 7 8 8 9 9 9 7 6 6 5 6 5 4 7 9 9 7 6 9 11 8 7 6 4 5 5 5 5 4 4 4
4 3 1 1 1 1 2 2 3 4 5 6 7 7 8 9 9 8 7 6 6 6 5 5 6 8 10 8 8 10 11 11 9 6 4 4 4 4 4 4 5 5 5
Wind_Direction
324 322 319 316 318 316 312 313 318 317 315 311 305 297 289 283 273 265 265 270 276 279 281 280 275 267 258 254 245 235 227 207 176 127 105 107 104 108 106 104 101 89 82
297 296 295 296 296 295 294 298 300 301 303 303 302 296 286 281 276 271 268 273 279 283 286 287 284 278 265 257 239 228 214 186 158 142 130 118 107 114 112 110 105 98 92
275 271 272 273 274 276 278 281 284 285 288 293 296 297 292 284 279 273 267 267 271 279 284 284 283 276 265 245 223 205 179 157 141 136 133 121 110 115 109 107 108 106 102
267 265 264 263 263 265 267 269 271 273 275 277 281 288 293 289 279 272 268 263 265 273 280 285 288 275 261 233 211 180 154 139 132 130 130 128 119 120 119 122 120 121 118
275 272 268 265 264 264 265 265 265 265 271 273 277 282 287 287 278 274 270 263 259 262 269 287 298 347 324 209 182 151 142 135 134 132 133 131 132 137 138 140 129 127 120
273 274 273 269 268 269 270 269 267 266 267 270 274 283 288 294 303 289 271 267 258 246 239 229 185 133 109 103 111 123 133 140 143 139 137 139 140 139 134 138 139 142 140
278 277 276 275 273 270 277 278 277 282 283 282 284 285 286 290 284 257 243 248 243 228 210 195 182 143 138 121 108 103 101 113 130 139 139 141 139 145 145 140 140 134 124
280 280 279 278 279 275 274 276 280 283 283 283 281 280 281 283 278 246 230 233 233 210 191 173 152 145 144 135 126 110 94 88 103 112 117 118 118 126 132 136 132 117 113
287 283 281 279 279 279 278 275 277 279 279 278 277 271 274 278 269 243 227 227 212 189 166 154 148 142 140 136 124 116 106 93 85 95 100 105 106 105 111 127 141 133 129
284 281 278 275 274 275 276 275 274 272 272 273 272 269 269 273 268 238 228 228 200 167 152 144 143 139 140 136 129 127 122 121 118 110 107 113 113 106 98 111 156 146 135
288 287 283 277 276 275 269 266 266 267 269 268 271 269 262 263 255 230 223 233 199 166 156 150 140 138 137 132 126 124 130 130 126 123 122 122 115 96 75 53 47 104 117
295 290 285 282 280 281 275 273 267 262 264 265 264 264 257 247 234 220 214 222 229 169 156 148 143 141 135 132 126 132 136 133 129 128 126 125 112 92 81 72 66 72 84
293 287 284 282 279 276 273 271 268 259 257 261 261 261 252 229 207 207 196 204 219 196 153 141 140 138 131 127 135 145 151 148 141 137 131 118 107 107 104 93 83 79 73
289 286 283 280 276 271 265 261 259 257 255 257 260 261 246 196 164 159 170 162 164 154 135 133 132 135 128 125 139 157 182 168 142 127 117 114 117 127 133 133 122 107 94
287 283 279 275 271 270 264 254 251 249 246 247 259 238 196 150 127 133 156 154 158 149 140 137 141 144 142 144 156 171 181 151 128 122 124 133 146 156 155 152 146 138 126
282 279 275 270 265 261 261 261 242 238 241 230 221 197 132 128 136 129 115 110 130 153 150 148 152 156 158 159 165 169 165 147 136 133 138 147 153 150 142 146 156 146 142
277 274 268 264 259 257 252 249 246 232 229 220 201 181 158 145 143 141 132 132 148 165 163 156 160 162 164 162 164 162 157 146 140 141 145 147 143 139 142 153 153 132 127
279 271 264 257 252 248 245 241 237 229 215 207 197 187 167 157 155 153 142 138 154 192 188 169 170 166 166 164 164 158 147 141 141 142 142 142 142 144 149 152 143 133 127
281 269 258 252 246 240 237 232 228 226 216 206 170 165 165 151 145 151 156 172 176 192 199 177 169 164 163 160 154 144 140 143 147 142 141 144 146 147 153 147 120 121 139
281 271 257 250 244 235 228 226 218 207 200 195 180 162 150 151 152 158 183 193 187 196 196 173 163 158 155 152 143 141 144 147 149 146 141 146 150 153 148 136 135 152 171
290 278 252 241 236 230 225 218 203 193 190 190 178 161 159 164 164 169 182 192 193 197 182 170 158 154 149 144 145 149 148 149 156 152 145 155 155 149 146 142 150 171 159
298 279 250 235 224 214 210 202 186 184 187 177 152 152 164 167 166 171 184 187 194 194 173 163 160 156 153 155 153 152 151 155 164 154 149 160 153 157 158 156 166 172 160
316 306 262 220 200 182 190 177 174 178 171 159 150 154 167 172 171 175 183 183 188 182 172 164 161 158 155 153 153 157 159 160 160 153 152 160 162 164 163 162 167 167 174
330 332 337 331 172 168 158 150 156 158 153 151 155 158 164 168 171 174 181 180 182 177 171 169 169 161 155 152 156 163 156 152 154 156 160 165 168 170 168 163 174 188 188
341 1 13 26 67 97 117 134 148 152 152 153 155 159 164 167 168 171 176 172 178 181 182 181 167 159 160 162 162 150 140 141 150 155 157 168 175 175 177 178 184 199 202
354 10 13 44 102 135 157 164 167 169 163 162 163 163 164 163 164 167 169 173 181 180 180 184 168 158 160 163 146 128 129 130 128 133 159 178 186 187 189 199 202 208 215